Change the Weather History Date:

Thursday, December 26, 2013

  Actual Average Record
Temperature  
Mean Temperature 66 °F -  
Max Temperature 74 °F - - ()
Min Temperature 57 °F - - ()
Growing Degree Days 16 (Base 50)    
Moisture  
Dew Point 34 °F    
Average Humidity 28    
Maximum Humidity 42    
Minimum Humidity 9    
Precipitation  
Precipitation 0.00 in - - ()
Sea Level Pressure  
Sea Level Pressure 30.18 in    
Wind  
Wind Speed 7 mph ()    
Max Wind Speed 18 mph    
Max Gust Speed -    
Visibility 7.6 miles    
Events      
T = Trace of Precipitation, MM = Missing Value Source: Averaged Metar Reports

Daily Weather History Graph

Daily Weather History Graph

Search for Another Location

Airport or City:

Trip Planner

Search our weather history database for the weather conditions in past years. The results will help you decide how hot, cold, wet, or windy it might be!

Date:

Astronomy

Dec. 26, 2013 Rise Set
Actual Time 6:23 AM IRST 4:55 PM IRST
Civil Twilight 5:57 AM IRST 5:20 PM IRST
Nautical Twilight 5:29 AM IRST 5:49 PM IRST
Astronomical Twilight 5:01 AM IRST 6:17 PM IRST
Moon No Moon Rise 11:52 AM IRST (12/26)
Length of Visible Light 11h 23m
Length of Day
10h 32m
Last Quarter, 42% of the Moon is Illuminated
Dec 26
Last Quarter
Jan 1
New
Jan 8
First Quarter
Jan 16
Full
Jan 24
Last Quarter

Hourly Weather History & Observations

Time (IRST) Temp. Dew Point Humidity Pressure Visibility Wind Dir Wind Speed Gust Speed Precip Events Conditions
12:30 AM 62 °F 37 °F 27% 30.23 in 6 mi NNE 6.7 mph - -  
12:30 AM 60.8 °F 37.4 °F 42% 30.21 in - NNE 6.9 mph - N/A   Clear
3:30 AM 61 °F 37 °F 28% 30.22 in 6 mi NNE 6.7 mph - -  
3:30 AM 60.8 °F 37.4 °F 42% 30.21 in - NNE 6.9 mph - N/A   Clear
5:20 AM 59.0 °F 30.2 °F 34% 30.18 in - North 11.5 mph - N/A   Clear
5:30 AM 59.0 °F 30.2 °F 34% 30.18 in - North 11.5 mph - N/A   Clear
6:20 AM 57.2 °F 19.4 °F 23% 30.21 in - Calm Calm - N/A   Clear
6:30 AM 57 °F 20 °F 13% 30.23 in 7 mi Calm Calm - -  
6:30 AM 57.2 °F 19.4 °F 23% 30.21 in - Calm Calm - N/A   Clear
7:30 AM 57.2 °F 30.2 °F 36% 30.24 in - North 11.5 mph - N/A   Clear
8:30 AM 60.8 °F 35.6 °F 39% 30.24 in - North 9.2 mph - N/A   Clear
9:30 AM 65 °F 33 °F 19% 30.27 in 9 mi Calm Calm - -  
9:30 AM 66.2 °F 32.0 °F 28% 30.24 in - Calm Calm - N/A   Clear
10:30 AM 69.8 °F 32.0 °F 25% 30.24 in - Calm Calm - N/A   Clear
11:30 AM 71.6 °F 28.4 °F 20% 30.21 in - West 4.6 mph - N/A   Clear
12:30 PM 73 °F 26 °F 9% 30.21 in 9 mi Calm Calm - -  
12:30 PM 73.4 °F 26.6 °F 18% 30.18 in - Calm Calm - N/A   Clear
1:30 PM 71.6 °F 30.2 °F 22% 30.15 in - Calm Calm - N/A   Clear
2:20 PM 73.4 °F 35.6 °F 25% 30.12 in - West 16.1 mph - N/A   Clear
2:30 PM 73.4 °F 35.6 °F 25% 30.12 in - West 16.1 mph - N/A   Clear
3:30 PM 74 °F 40 °F 19% 30.14 in 10 mi West 13.4 mph - -  
3:30 PM 73.4 °F 41.0 °F 31% 30.12 in - West 13.8 mph - N/A   Clear
4:30 PM 71.6 °F 41.0 °F 33% 30.12 in - West 16.1 mph - N/A   Clear
5:30 PM 69.8 °F 37.4 °F 31% 30.12 in - WNW 16.1 mph - N/A   Clear
6:30 PM 69 °F 38 °F 22% 30.17 in 8 mi NW 13.4 mph - -  
6:30 PM 69.8 °F 39.2 °F 33% 30.15 in - NW 13.8 mph - N/A   Clear
7:30 PM 68.0 °F 39.2 °F 35% 30.15 in - NNW 18.4 mph - N/A   Clear
8:30 PM 68.0 °F 41.0 °F 37% 30.15 in - NNW 13.8 mph - N/A   Clear
9:30 PM 67 °F 41 °F 28% 30.18 in 6 mi NNW 11.2 mph - -  
9:30 PM 68.0 °F 41.0 °F 37% 30.15 in - NNW 11.5 mph - N/A   Clear